This demonstration page uses our WeatherBlox Daily Observations layout. Learn more.

Left ArrowRight Arrow

44.8408, -93.29828

Hourly Observations for March 21, 2017

Temp ( °F °C ) Dew Point ( °F °C ) Humidity (%) Winds ( mph kmh ) Pressure ( in mb ) Visibility ( mi km ) Precip ( " mm )
12:53 am 00:53 Clear 39 3.9 17 -8.3 41 41 WNW 8 13 30.24 1024 10 16 0.00 0.00
1:53 am 01:53 Clear 40 4.4 19 -7.2 43 43 NW 10 17 30.24 1024 10 16 0.00 0.00
2:53 am 02:53 Clear 39 3.9 20 -6.7 46 46 NW 12 19 30.26 1025 10 16 0.00 0.00
3:53 am 03:53 Clear 37 2.8 21 -6.1 52 52 NNW 15 24 30.26 1025 10 16 0.00 0.00
4:53 am 04:53 Partly Cloudy 36 2.2 22 -5.6 57 57 NNW 14 22 30.28 1025 10 16 0.00 0.00
5:53 am 05:53 Mostly Cloudy 33 0.6 21 -6.1 61 61 NNW 20 31 30.30 1026 10 16 0.00 0.00
6:53 am 06:53 Mostly Cloudy 30 -1.1 17 -8.3 58 58 N 17 28 30.35 1028 10 16 0.00 0.00
7:53 am 07:53 Mostly Cloudy 28 -2.2 11 -11.7 49 49 N 20 31 30.39 1029 10 16 0.00 0.00
8:53 am 08:53 Mostly Cloudy 28 -2.2 10 -12.2 47 47 NNW 15 24 30.42 1030 10 16 0.00 0.00
9:53 am 09:53 Mostly Cloudy 28 -2.2 8 -13.3 43 43 NNW 13 20 30.44 1031 10 16 0.00 0.00
10:53 am 10:53 Partly Cloudy 31 -0.6 7 -13.9 36 36 NNW 14 22 30.45 1031 10 16 0.00 0.00
11:53 am 11:53 Mostly Sunny 33 0.6 8 -13.3 35 35 N 13 20 30.45 1031 10 16 0.00 0.00
12:53 pm 12:53 Sunny 33 0.6 4 -15.6 29 29 NNW 17 28 30.45 1031 10 16 0.00 0.00
1:53 pm 13:53 Sunny 35 1.7 4 -15.6 27 27 N 12 19 30.45 1031 10 16 0.00 0.00
2:53 pm 14:53 Sunny 37 2.8 7 -13.9 28 28 N 15 24 30.44 1031 10 16 0.00 0.00
3:53 pm 15:53 Sunny 37 2.8 5 -15 26 26 NNW 15 24 30.45 1031 10 16 0.00 0.00
4:53 pm 16:53 Sunny 35 1.7 3 -16.1 26 26 N 14 22 30.45 1031 10 16 0.00 0.00
5:53 pm 17:53 Sunny 34 1.1 5 -15 29 29 N 18 30 30.46 1031 10 16 0.00 0.00
6:53 pm 18:53 Mostly Sunny 32 0 5 -15 32 32 NNE 13 20 30.48 1032 10 16 0.00 0.00
7:53 pm 19:53 Mostly Clear 31 -0.6 6 -14.4 35 35 N 9 15 30.50 1033 10 16 0.00 0.00
8:53 pm 20:53 Mostly Clear 29 -1.7 5 -15 36 36 N 9 15 30.53 1034 10 16 0.00 0.00
9:53 pm 21:53 Clear 28 -2.2 4 -15.6 35 35 N 10 17 30.56 1035 10 16 0.00 0.00
10:53 pm 22:53 Clear 27 -2.8 5 -15 39 39 NNE 7 11 30.58 1035 10 16 0.00 0.00
11:53 pm 23:53 Clear 25 -3.9 5 -15 42 42 NNE 6 9 30.58 1036 10 16 0.00 0.00

Powered by AerisWeather